This is the latest recevied weather packets stored in our database for station/object KD8FRE. If no packets are shown the sender has not sent any weather packets the latest 10 day(s).
| Time | Temp. | Humidity | Pressure | Rain* | Wind** | Luminosity | Snow |
|---|---|---|---|---|---|---|---|
| 1778130990 | 7.78° C | 55% | 1013.2 hPa | 0 mm | - | 0 W/m² | - |
| 1778130687 | 7.78° C | 55% | 1013.3 hPa | 0 mm | - | 0 W/m² | - |
| 1778130384 | 7.78° C | 56% | 1013.3 hPa | 0 mm | - | 0 W/m² | - |
| 1778130080 | 7.78° C | 56% | 1013.5 hPa | 0 mm | - | 0 W/m² | - |
| 1778129777 | 8.33° C | 55% | 1013.3 hPa | 0 mm | - | 0 W/m² | - |
| 1778129474 | 8.33° C | 54% | 1013.3 hPa | 0 mm | - | 0 W/m² | - |
| 1778129170 | 8.33° C | 54% | 1013.3 hPa | 0 mm | - | 0 W/m² | - |
| 1778128868 | 8.33° C | 54% | 1013.3 hPa | 0 mm | - | 0 W/m² | - |
| 1778128563 | 8.33° C | 57% | 1013.2 hPa | 0 mm | - | 0 W/m² | - |
| 1778128261 | 8.33° C | 55% | 1013.4 hPa | 0 mm | - | 0 W/m² | - |
| 1778127956 | 8.33° C | 54% | 1013.2 hPa | 0 mm | - | 0 W/m² | - |
| 1778127652 | 8.33° C | 54% | 1013.4 hPa | 0 mm | - | 0 W/m² | - |
| 1778127349 | 8.33° C | 55% | 1013.4 hPa | 0 mm | - | 0 W/m² | - |
| 1778127046 | 8.33° C | 55% | 1013.2 hPa | 0 mm | - | 0 W/m² | - |
| 1778126743 | 8.33° C | 57% | 1013.3 hPa | 0 mm | - | 0 W/m² | - |
| 1778126439 | 8.33° C | 57% | 1013.4 hPa | 0 mm | - | 0 W/m² | - |
| 1778126135 | 8.33° C | 57% | 1013.4 hPa | 0 mm | - | 0 W/m² | - |
| 1778125832 | 8.33° C | 56% | 1013.4 hPa | 0 mm | - | 0 W/m² | - |
| 1778125528 | 8.33° C | 54% | 1013.5 hPa | 0 mm | - | 0 W/m² | - |
| 1778125226 | 8.89° C | 52% | 1013.4 hPa | 0 mm | - | 0 W/m² | - |
| 1778124924 | 8.89° C | 54% | 1013.4 hPa | 0 mm | - | 0 W/m² | - |
| 1778124621 | 8.89° C | 54% | 1013.6 hPa | 0 mm | - | 0 W/m² | - |
| 1778124318 | 8.89° C | 53% | 1013.4 hPa | 0 mm | - | 0 W/m² | - |
| 1778124014 | 8.89° C | 50% | 1013.5 hPa | 0 mm | - | 0 W/m² | - |
| 1778123710 | 8.89° C | 50% | 1013.5 hPa | 0 mm | - | 0 W/m² | - |
* Rain latest hour (hover to see other rain measurements)
** Current wind speed in m/s (hover to see current wind gust speed)